This is the latest recevied weather packets stored in our database for station/object GW4003. If no packets are shown the sender has not sent any weather packets the latest 10 day(s).
| Time | Temp. | Humidity | Pressure | Rain* | Wind** | Luminosity | Snow |
|---|---|---|---|---|---|---|---|
| 1777410175 | 13.89° C | 43% | 1017.1 hPa | 0 mm | - | - | - |
| 1777409871 | 13.89° C | 41% | 1016.9 hPa | 0 mm | - | - | - |
| 1777409568 | 13.89° C | 42% | 1017 hPa | 0 mm | - | - | - |
| 1777409265 | 13.89° C | 43% | 1017.2 hPa | 0 mm | - | - | - |
| 1777408962 | 14.44° C | 41% | 1017.3 hPa | 0 mm | - | - | - |
| 1777408659 | 15° C | 41% | 1017.3 hPa | 0 mm | - | - | - |
| 1777408355 | 14.44° C | 42% | 1017.3 hPa | 0 mm | - | - | - |
| 1777408052 | 13.89° C | 44% | 1017.3 hPa | 0 mm | - | - | - |
| 1777407749 | 12.78° C | 46% | 1017.3 hPa | 0 mm | - | - | - |
| 1777407446 | 12.78° C | 46% | 1017.5 hPa | 0 mm | - | - | - |
| 1777407147 | 12.78° C | 45% | 1017.5 hPa | 0 mm | - | - | - |
| 1777406847 | 13.33° C | 45% | 1017.5 hPa | 0 mm | - | - | - |
| 1777406542 | 13.33° C | 46% | 1017.5 hPa | 0 mm | - | - | - |
| 1777406240 | 13.33° C | 47% | 1017.3 hPa | 0 mm | - | - | - |
| 1777405937 | 13.33° C | 46% | 1017.3 hPa | 0 mm | - | - | - |
| 1777405636 | 13.33° C | 47% | 1017.3 hPa | 0 mm | - | - | - |
| 1777405333 | 13.33° C | 47% | 1017.2 hPa | 0 mm | - | - | - |
| 1777405030 | 12.78° C | 48% | 1017.1 hPa | 0 mm | - | - | - |
| 1777404726 | 12.22° C | 50% | 1017.2 hPa | 0 mm | - | - | - |
| 1777404426 | 12.22° C | 51% | 1017.1 hPa | 0 mm | - | - | - |
| 1777404122 | 12.22° C | 53% | 1017.3 hPa | 0 mm | - | - | - |
| 1777403819 | 11.67° C | 53% | 1017.3 hPa | 0 mm | - | - | - |
| 1777403516 | 11.11° C | 54% | 1017.3 hPa | 0 mm | - | - | - |
| 1777403215 | 11.67° C | 52% | 1017.4 hPa | 0 mm | - | - | - |
| 1777402912 | 11.67° C | 53% | 1017.4 hPa | 0 mm | - | - | - |
* Rain latest hour (hover to see other rain measurements)
** Current wind speed in m/s (hover to see current wind gust speed)